Weather History for KI39 - October, 2012

Change the Weather History Date:

Friday, October 5, 2012

  Actual Average (KLOZ) Record (KLOZ)
Temperature  
Mean Temperature 67 °F 61 °F  
Max Temperature 77 °F 73 °F 88 °F (1959)
Min Temperature 57 °F 49 °F 28 °F (1968)
Degree Days  
Heating Degree Days 0 5  
Month to date heating degree days 24  
Since 1 July heating degree days 71  
Cooling Degree Days 2 1  
Month to date cooling degree days 7  
Growing Degree Days 17 (Base 50)    
Moisture  
Dew Point 56 °F    
Average Humidity 68    
Maximum Humidity 88    
Minimum Humidity 44    
Precipitation  
Precipitation 0.00 in 0.10 in 2.14 in (1995)
Month to date precipitation 0.48  
Sea Level Pressure  
Sea Level Pressure 30.11 in    
Wind  
Wind Speed 7 mph (SSW)    
Max Wind Speed 13 mph    
Max Gust Speed 17 mph    
Visibility 10 miles    
Events      
T = Trace of Precipitation, MM = Missing Value Source: NWS Daily Summary

Daily Weather History Graph

Daily Weather History Graph

Search for Another Location

Airport or City:

Trip Planner

Search our weather history database for the weather conditions in past years. The results will help you decide how hot, cold, wet, or windy it might be!

Date:

Astronomy

Oct. 05, 2012 Rise Set
Actual Time 7:36 AM EDT 7:13 PM EDT
Civil Twilight 7:10 AM EDT 7:39 PM EDT
Nautical Twilight 6:40 AM EDT 8:10 PM EDT
Astronomical Twilight 6:09 AM EDT 8:40 PM EDT
Moon 10:41 PM EDT (10/5) 12:38 PM EDT (10/5)
Length of Visible Light 12h 29m
Length of Day
11h 36m
Waning Gibbous, 74% of the Moon is Illuminated
Oct 5
Waning Gibbous
Oct 8
Last Quarter
Oct 15
New
Oct 21
First Quarter
Oct 29
Full

Hourly Weather History & Observations

Time (EDT) Temp. Dew Point Humidity Pressure Visibility Wind Dir Wind Speed Gust Speed Precip Events Conditions
12:15 AM 60.8 °F 55.4 °F 82% 30.22 in 10.0 mi South 5.8 mph - N/A   Clear
12:35 AM 62.6 °F 55.4 °F 77% 30.21 in 10.0 mi South 5.8 mph - N/A   Clear
12:55 AM 62.6 °F 55.4 °F 77% 30.21 in 10.0 mi SSW 6.9 mph - N/A   Clear
1:15 AM 62.6 °F 55.4 °F 77% 30.21 in 10.0 mi SSW 6.9 mph - N/A   Clear
1:35 AM 62.6 °F 55.4 °F 77% 30.21 in 10.0 mi South 8.1 mph - N/A   Clear
1:55 AM 62.6 °F 55.4 °F 77% 30.21 in 10.0 mi South 5.8 mph - N/A   Clear
2:15 AM 62.6 °F 53.6 °F 72% 30.21 in 10.0 mi South 8.1 mph - N/A   Clear
2:35 AM 62.6 °F 53.6 °F 72% 30.21 in 10.0 mi South 8.1 mph - N/A   Clear
2:55 AM 60.8 °F 53.6 °F 77% 30.20 in 10.0 mi South 6.9 mph - N/A   Clear
3:15 AM 60.8 °F 53.6 °F 77% 30.19 in 10.0 mi South 5.8 mph - N/A   Clear
3:35 AM 59.0 °F 53.6 °F 82% 30.19 in 10.0 mi South 6.9 mph - N/A   Clear
4:15 AM 59.0 °F 53.6 °F 82% 30.17 in 10.0 mi South 5.8 mph - N/A   Clear
4:35 AM 59.0 °F 53.6 °F 82% 30.17 in 10.0 mi SSW 4.6 mph - N/A   Clear
4:55 AM 59.0 °F 53.6 °F 82% 30.17 in 10.0 mi SSW 6.9 mph - N/A   Clear
5:15 AM 59.0 °F 53.6 °F 82% 30.17 in 10.0 mi South 6.9 mph - N/A   Clear
5:35 AM 59.0 °F 53.6 °F 82% 30.17 in 10.0 mi SSW 5.8 mph - N/A   Clear
5:55 AM 57.2 °F 53.6 °F 88% 30.17 in 10.0 mi SSW 5.8 mph - N/A   Clear
6:15 AM 59.0 °F 53.6 °F 82% 30.18 in 10.0 mi SSW 5.8 mph - N/A   Clear
6:35 AM 57.2 °F 53.6 °F 88% 30.17 in 10.0 mi SSW 6.9 mph - N/A   Clear
6:55 AM 59.0 °F 55.4 °F 88% 30.18 in 10.0 mi SSW 6.9 mph - N/A   Clear
7:15 AM 59.0 °F 53.6 °F 82% 30.18 in 10.0 mi South 8.1 mph - N/A   Clear
7:35 AM 59.0 °F 55.4 °F 88% 30.18 in 10.0 mi South 9.2 mph - N/A   Clear
7:55 AM 59.0 °F 53.6 °F 82% 30.18 in 10.0 mi SSW 6.9 mph - N/A   Clear
8:15 AM 59.0 °F 55.4 °F 88% 30.18 in 10.0 mi SSW 5.8 mph - N/A   Clear
8:35 AM 60.8 °F 55.4 °F 82% 30.17 in 10.0 mi SSW 6.9 mph - N/A   Clear
8:55 AM 60.8 °F 55.4 °F 82% 30.17 in 10.0 mi SSW 6.9 mph - N/A   Clear
9:15 AM 62.6 °F 57.2 °F 82% 30.17 in 10.0 mi South 6.9 mph - N/A   Clear
9:35 AM 64.4 °F 57.2 °F 77% 30.17 in 10.0 mi SSW 6.9 mph - N/A   Clear
9:55 AM 64.4 °F 57.2 °F 77% 30.16 in 10.0 mi SSW 9.2 mph - N/A   Clear
10:15 AM 66.2 °F 59.0 °F 78% 30.16 in 10.0 mi SSW 6.9 mph - N/A   Clear
10:35 AM 68.0 °F 57.2 °F 68% 30.16 in 7.0 mi SSW 8.1 mph - N/A   Clear
10:55 AM 68.0 °F 59.0 °F 73% 30.16 in 10.0 mi SSW 5.8 mph - N/A   Clear
11:15 AM 69.8 °F 59.0 °F 68% 30.15 in 10.0 mi SW 9.2 mph - N/A   Clear
11:35 AM 71.6 °F 60.8 °F 69% 30.15 in 10.0 mi SSW 6.9 mph - N/A   Clear
11:55 AM 73.4 °F 60.8 °F 65% 30.15 in 10.0 mi SW 10.4 mph - N/A   Clear
12:15 PM 73.4 °F 59.0 °F 61% 30.15 in 10.0 mi West 8.1 mph - N/A   Clear
12:35 PM 73.4 °F 59.0 °F 61% 30.15 in 10.0 mi SW 11.5 mph - N/A   Clear
12:55 PM 75.2 °F 59.0 °F 57% 30.14 in 10.0 mi SW 8.1 mph - N/A   Scattered Clouds
1:15 PM 75.2 °F 59.0 °F 57% 30.14 in 10.0 mi SW 12.7 mph 17.3 mph N/A   Scattered Clouds
1:35 PM 75.2 °F 57.2 °F 53% 30.12 in 10.0 mi West 9.2 mph 16.1 mph N/A   Mostly Cloudy
1:55 PM 75.2 °F 57.2 °F 53% 30.11 in 10.0 mi SSW 10.4 mph - N/A   Mostly Cloudy
2:15 PM 73.4 °F 55.4 °F 53% 30.10 in 10.0 mi WSW 9.2 mph - N/A   Mostly Cloudy
2:35 PM 75.2 °F 57.2 °F 53% 30.08 in 10.0 mi SSW 4.6 mph - N/A   Scattered Clouds
3:15 PM 77.0 °F 57.2 °F 50% 30.07 in 10.0 mi SSW 9.2 mph - N/A   Mostly Cloudy
3:35 PM 75.2 °F 55.4 °F 50% 30.06 in 10.0 mi WSW 5.8 mph - N/A   Scattered Clouds
3:55 PM 77.0 °F 55.4 °F 47% 30.05 in 10.0 mi SW 6.9 mph - N/A   Mostly Cloudy
4:15 PM 77.0 °F 55.4 °F 47% 30.03 in 10.0 mi South 9.2 mph - N/A   Scattered Clouds
4:35 PM 77.0 °F 55.4 °F 47% 30.03 in 10.0 mi SW 5.8 mph - N/A   Scattered Clouds
4:55 PM 77.0 °F 53.6 °F 44% 30.03 in 10.0 mi SSW 10.4 mph - N/A   Scattered Clouds
5:15 PM 75.2 °F 53.6 °F 47% 30.03 in 10.0 mi SW 10.4 mph - N/A   Scattered Clouds
5:35 PM 75.2 °F 53.6 °F 47% 30.02 in 10.0 mi South 6.9 mph - N/A   Scattered Clouds
5:55 PM 73.4 °F 55.4 °F 53% 30.02 in 10.0 mi SSW 4.6 mph - N/A   Mostly Cloudy
6:15 PM 73.4 °F 55.4 °F 53% 30.02 in 10.0 mi SSW 4.6 mph - N/A   Overcast
6:35 PM 71.6 °F 55.4 °F 57% 30.01 in 10.0 mi South 4.6 mph - N/A   Overcast
6:55 PM 71.6 °F 55.4 °F 57% 30.00 in 10.0 mi Calm Calm - N/A   Mostly Cloudy
7:15 PM 71.6 °F 55.4 °F 57% 30.00 in 10.0 mi SSW 4.6 mph - N/A   Mostly Cloudy
7:35 PM 69.8 °F 55.4 °F 60% 30.00 in 10.0 mi South 4.6 mph - N/A   Mostly Cloudy
7:55 PM 68.0 °F 55.4 °F 64% 30.00 in 10.0 mi South 4.6 mph - N/A   Overcast
8:15 PM 68.0 °F 55.4 °F 64% 30.00 in 10.0 mi South 4.6 mph - N/A   Mostly Cloudy
8:35 PM 68.0 °F 55.4 °F 64% 30.01 in 10.0 mi SSW 4.6 mph - N/A   Mostly Cloudy
8:55 PM 68.0 °F 55.4 °F 64% 30.01 in 10.0 mi SSW 5.8 mph - N/A   Mostly Cloudy
9:15 PM 66.2 °F 55.4 °F 68% 29.99 in 10.0 mi South 4.6 mph - N/A   Mostly Cloudy
9:35 PM 68.0 °F 55.4 °F 64% 29.98 in 10.0 mi SSE 4.6 mph - N/A   Mostly Cloudy
9:55 PM 66.2 °F 55.4 °F 68% 29.98 in 10.0 mi SSE 5.8 mph - N/A   Scattered Clouds
10:15 PM 66.2 °F 55.4 °F 68% 29.98 in 10.0 mi South 4.6 mph - N/A   Clear
10:35 PM 66.2 °F 55.4 °F 68% 29.97 in 10.0 mi SSW 6.9 mph - N/A   Clear
10:55 PM 66.2 °F 55.4 °F 68% 29.97 in 10.0 mi South 8.1 mph - N/A   Clear
11:15 PM 66.2 °F 55.4 °F 68% 29.97 in 10.0 mi South 8.1 mph - N/A   Mostly Cloudy
11:35 PM 68.0 °F 55.4 °F 64% 29.96 in 10.0 mi South 8.1 mph - N/A   Overcast
11:55 PM 68.0 °F 55.4 °F 64% 29.96 in 10.0 mi SSW 8.1 mph - N/A   Overcast